Regional Weather Roundup
Issued by NWS

Home | Current Version | Previous Version | Text Only | Print | Product List | Glossary Off
Versions: 1 2 3 4 5 6 7 8 9 10 11 12 13 14 15 16 17 18 19 20 21 22 23 24 25 26 27 28 29 30 31 32 33 34 35 36 37 38 39 40 41 42 43 44 45 46 47 48 49 50

875
ASUS43 KDMX 170701
RWRIA

WEATHER ROUNDUP FOR IOWA
NATIONAL WEATHER SERVICE DES MOINES IA
200 AM CDT THU AUG 17 2017

NOTE: "FAIR" INDICATES FEW OR NO CLOUDS BELOW 12,000 FEET WITH NO
SIGNIFICANT WEATHER AND/OR OBSTRUCTIONS TO VISIBILITY.

* - THESE STATIONS ARE NOT NWS STATIONS...THUS NOT UNDER NWS
QUALITY CONTROL.  THEY ALSO DO NOT REPORT WEATHER SUCH
AS PRECIPITATION OR FOG.

IAZ001>003-012>014-020>022-031>034-043>046-170800-
   NORTHWEST IOWA

CITY           SKY/WX    TMP DP  RH WIND       PRES   REMARKS
CARROLL *      CLOUDY    66  64  94 W9G15     29.76S
CHEROKEE *     CLOUDY    66  66  98 W8        29.74S
DENISON *      CLOUDY    64  63  94 W7        29.79S
LE MARS *      CLOUDY    66  66 100 W8        29.76R
ORANGE CITY *  CLOUDY    66  66 100 NW12G17   29.75S
SHELDON *      CLOUDY    66  64  94 W10G17    29.72S
SIOUX CITY     CLOUDY    67  65  93 W12       29.77F
SPENCER        CLOUDY    66  64  93 W14       29.71R
STORM LAKE *   CLOUDY    64  64 100 W13G20    29.75S FOG
$$

IAZ055>058-069>071-079>083-090>094-170800-
   SOUTHWEST IOWA

CITY           SKY/WX    TMP DP  RH WIND       PRES   REMARKS
ATLANTIC *     PTCLDY    64  63  94 W7        29.81R
AUDUBON *      PTCLDY    64  61  88 SW5       29.80S
CLARINDA *       N/A     66  64  94 W12       29.86R
COUNCIL BLFS * CLEAR     64  64 100 W9G16     29.83S
CRESTON *      CLOUDY    66  64  94 W9        29.83S
HARLAN  *      CLEAR     64  63  94 W12G17    29.83F
LAMONI         CLOUDY    70  66  87 W9        29.81S
RED OAK *      CLEAR     64  63  94 SW6       29.84R
SHENANDOAH *   CLEAR     64  63  94 SW3       29.86R
$$

IAZ047>049-059>061-072>074-084-170800-
   CENTRAL IOWA

CITY           SKY/WX    TMP DP  RH WIND       PRES   REMARKS
AMES           CLOUDY    66  66 100 W8        29.74F
ANKENY *       PTCLDY    70  64  83 W9        29.76F
BOONE *        PTCLDY    66  64  94 W14       29.74F
CHARITON *     CLOUDY    70  66  88 SW3       29.79S
DES MOINES     PTCLDY    69  65  86 W10       29.75F
GRINNELL*      CLOUDY    68  64  87 W7        29.78S
KNOXVILLE *    CLOUDY    68  64  88 SW3       29.76F
NEWTON *       CLOUDY    68  64  88 SW5       29.76F
PELLA *        CLOUDY    71  65  81 W6        29.78F
PERRY *          N/A     66  65  96 W7        29.76S
$$

IAZ004>006-015-016-023>025-035-036-170800-
   NORTH CENTRAL IOWA

CITY           SKY/WX    TMP DP  RH WIND       PRES   REMARKS
ALGONA *       CLOUDY    66  66 100 W12       29.70R
CLARION *      CLOUDY    66  66 100 SW10G20   29.71S
ESTHERVILLE    CLOUDY    65  65 100 W12       29.67S
FORT DODGE *   CLOUDY    66  63  88 W13G18    29.73S
MASON CITY     CLOUDY    67  64  90 SW15      29.69F
FOREST CITY *  CLOUDY    68  64  88 SW13      29.68S
WEBSTER CITY * CLOUDY    68  64  88 W10G18    29.71S
IOWA FALLS *   CLOUDY    67  65  91 SW9       29.74S
$$

IAZ007>011-017>019-026>030-037>042-050>054-066-170800-
   NORTHEAST IOWA

CITY           SKY/WX    TMP DP  RH WIND       PRES   REMARKS
CHARLES CITY * CLOUDY    68  68 100 SW8G15    29.70F
CLINTON *      CLOUDY    73  70  90 SW10      29.76S
DECORAH *      CLOUDY    70  66  88 SW8G18    29.69S
MONTICELLO *   MOCLDY    73  72  94 S7        29.73S
OELWEIN *      CLOUDY    68  66  94 SW10G17   29.74R
$$

IAZ064-065-067-068-078-170800-
   EAST CENTRAL IOWA

CITY           SKY/WX    TMP DP  RH WIND       PRES   REMARKS
MUSCATINE *    CLOUDY    75  70  83 SW13      29.76S
$$

IAZ062-063-075>077-085>089-095>099-170800-
   SOUTHEAST IOWA

CITY           SKY/WX    TMP DP  RH WIND       PRES   REMARKS
BURLINGTON     CLOUDY    73  70  90 SW12      29.78R
FAIRFIELD *    CLOUDY    73  72  94 SW9       29.77S
FORT MADISON * CLOUDY    73  72  94 SW14G21   29.80R
KEOKUK *       CLOUDY    72  70  94 SW10      29.79S
OSKALOOSA *      N/A     71  68  90 W6        29.78S
OTTUMWA        MOCLDY    73  72  96 W7        29.78R
WASHINGTON *   CLOUDY    73  72  94 SW9G16    29.77S
$$

ABBREVIATIONS USED IN REMARKS
   TC - TEMPERATURES IN CELSIUS
  WCI - WIND CHILL INDEX
   HX - HEAT INDEX
  VSB - VISIBILITY
$$





USA.gov is the U.S. government's official web portal to all federal, state and local government web resources and services.